Stations météo

Publicité
Dinard, France (7125): Température de l'air & dewpoint: 06.12.2018 20:00:00 - 12.12.2018 20:00:00 (CET)Dinard, France (7125): Température de l'air 5cm: 06.12.2018 20:00:00 - 12.12.2018 20:00:00 (CET)Dinard, France (7125): Température de l'air -20cm: 06.12.2018 20:00:00 - 12.12.2018 20:00:00 (CET)Dinard, France (7125): Vitesse du vent & gusts: 06.12.2018 20:00:00 - 12.12.2018 20:00:00 (CET)Dinard, France (7125): Direction du vent: 06.12.2018 20:00:00 - 12.12.2018 20:00:00 (CET)Dinard, France (7125): reduced air pressure: 06.12.2018 20:00:00 - 12.12.2018 20:00:00 (CET)Dinard, France (7125): visibility: 06.12.2018 20:00:00 - 12.12.2018 20:00:00 (CET)Dinard, France (7125): Ensoleillement: 06.12.2018 20:00:00 - 12.12.2018 20:00:00 (CET)Dinard, France (7125): Quantités de précipitations: 06.12.2018 20:00:00 - 12.12.2018 20:00:00 (CET)
Date & Time tt [°C] td [°C] tt 5cm [°C] tt -20cm [°C] ff [km/h] ff [knt] fx [km/h] fx [knt] dd ppp [hPa] vv [km] sd [min] rr [mm]
12.12.2018 20:00:00 3,3 -0,7 2,4 7,5 16 9 35 19 ESE 1015,8 28 0 0,0
12.12.2018 19:00:00 4,0 0,9 2,9 7,6 18 10 36 19 ESE 1016,1 20 0 0,0
12.12.2018 18:00:00 4,0 1,9 2,2 7,6 9 5 16 9 ESE 1017,4 12 0 0,0
12.12.2018 17:00:00 4,8 2,2 4,1 7,6 11 6 21 12 SSE 1017,6 14 18 0,0
12.12.2018 16:00:00 5,6 2,9 5,4 7,5 10 6 24 13 S 1018,1 13 0 0,0
12.12.2018 15:00:00 5,4 2,9 5,7 7,4 13 7 33 18 SE 1018,2 13 36 0,0
12.12.2018 14:00:00 5,6 3,1 5,6 7,4 16 9 30 16 SE 1018,7 13 20 0,0
12.12.2018 13:00:00 5,1 3,4 5,4 7,4 16 9 25 14 S 1019,8 8 0 0,0
12.12.2018 12:00:00 4,7 3,2 4,7 7,3 15 8 27 15 SSE 1020,2 6 0 0,0
12.12.2018 11:00:00 4,3 3,3 3,9 7,4 15 8 28 15 S 1020,9 7 0 0,0
12.12.2018 10:00:00 3,8 2,6 2,7 7,4 12 6 22 12 SSE 1020,6 8 0 0,0
12.12.2018 09:00:00 3,7 2,5 3,0 7,5 10 5 26 14 SSE 1020,1 8 0 0,0
12.12.2018 08:00:00 4,2 3,0 3,9 7,5 16 8 27 15 SSE 1020,1 7 0 0,0
12.12.2018 07:00:00 4,3 3,4 3,9 7,5 12 6 27 15 SSE 1019,9 7 0 0,2
12.12.2018 06:00:00 4,4 3,1 4,4 7,6 16 9 31 17 SE 1020,1 8 0 0,0
12.12.2018 05:00:00 4,5 3,3 4,2 7,6 16 9 26 14 SSE 1020,2 8 0 0,0
12.12.2018 04:00:00 4,4 3,1 4,0 7,7 13 7 27 15 SSE 1020,6 8 0 0,0
12.12.2018 03:00:00 4,1 2,9 4,0 7,8 18 10 35 19 SSE 1020,2 8 0 0,0
12.12.2018 02:00:00 4,2 3,0 3,9 7,9 20 11 32 17 SSE 1020,9 7 0 0,0
12.12.2018 01:00:00 4,3 3,1 3,9 7,9 14 8 23 12 SE 1021,4 7 0 0,0
12.12.2018 00:00:00 4,6 3,4 4,2 8,0 15 8 32 17 SSE 1021,9 8 0 0,0
11.12.2018 23:00:00 4,7 3,7 4,4 8,1 18 10 35 19 SSE 1021,5 8 0 0,0
11.12.2018 22:00:00 4,7 3,7 4,2 8,1 15 8 29 16 S 1021,8 7 0 0,0
11.12.2018 21:00:00 5,1 4,4 4,9 8,2 16 9 31 17 SE 1021,3 5 0 0,0
11.12.2018 20:00:00 5,1 4,4 4,9 8,2 14 8 27 14 SE 1021,7 5 0 0,0
11.12.2018 19:00:00 5,7 4,8 5,2 8,2 12 7 26 14 SSE 1021,9 6 0 0,0
11.12.2018 18:00:00 6,0 5,1 5,7 8,2 12 7 26 14 SE 1022,3 6 0 0,0
11.12.2018 17:00:00 6,2 5,2 6,1 8,2 11 6 21 12 SSE 1022,8 8 5 0,0
11.12.2018 16:00:00 6,8 5,4 6,9 8,1 16 9 30 16 S 1023,0 12 12 0,0
11.12.2018 15:00:00 7,2 6,0 7,3 8,0 16 9 28 15 SSE 1023,4 8 8 0,0
11.12.2018 14:00:00 6,6 5,9 7,5 7,9 16 8 27 14 SSE 1023,9 6 8 0,0
11.12.2018 13:00:00 6,6 5,5 7,6 7,9 19 11 27 14 S 1024,4 7 44 0,0
11.12.2018 12:00:00 7,2 6,0 7,5 7,9 10 6 26 14 SSE 1025,0 5 60 0,0
11.12.2018 11:00:00 6,6 5,1 6,4 7,9 16 8 24 13 S 1025,8 12 60 0,0
11.12.2018 10:00:00 5,6 4,7 3,9 8,1 11 6 19 10 SSE 1025,8 7 41 0,0
11.12.2018 09:00:00 4,7 4,1 2,8 8,2 10 5 18 10 SSE 1025,9 6 0 0,0
11.12.2018 08:00:00 4,4 4,1 -0,4 8,4 11 6 18 10 SE 1025,9 8 0 0,0
11.12.2018 07:00:00 3,3 2,9 0,1 8,5 7 4 13 7 SE 1026,1 6 0 0,0
11.12.2018 06:00:00 5,2 4,8 0,0 8,7 6 3 8 5 SSE 1026,2 11 0 0,0
11.12.2018 05:00:00 4,9 4,3 0,4 8,8 4 2 8 4 SSE 1026,7 9 0 0,0
11.12.2018 04:00:00 5,6 5,2 1,2 9,0 7 4 9 5 S 1027,3 7 0 0,0
11.12.2018 03:00:00 5,3 4,7 2,0 9,1 6 3 11 6 SW 1027,8 12 0 0,0
11.12.2018 02:00:00 5,5 4,8 1,7 9,2 8 5 11 6 SSW 1028,2 15 0 0,0
11.12.2018 01:00:00 5,4 4,2 2,3 9,4 8 4 9 5 SSW 1029,0 9 0 0,0
11.12.2018 00:00:00 5,9 4,9 3,1 9,5 8 4 13 7 SW 1029,3 12 0 0,0
10.12.2018 23:00:00 6,7 5,0 4,9 9,5 11 6 14 8 WSW 1029,4 17 0 0,0
10.12.2018 22:00:00 7,9 6,5 7,4 9,5 9 5 13 7 SW 1029,7 19 0 0,0
10.12.2018 21:00:00 8,3 6,6 7,4 9,6 9 5 11 6 WSW 1029,9 19 0 0,0
10.12.2018 20:00:00 7,9 6,4 5,1 9,7 8 4 9 5 SW 1030,2 14 0 0,0
10.12.2018 19:00:00 8,2 5,8 5,3 9,7 6 3 10 6 WSW 1030,3 20 0 0,0
10.12.2018 18:00:00 8,6 6,2 5,5 9,7 6 4 11 6 WSW 1030,2 28 0 0,0
10.12.2018 17:00:00 9,3 6,6 7,7 9,7 8 4 16 8 WSW 1030,5 29 0 0,0
10.12.2018 16:00:00 10,5 6,6 10,0 9,5 10 5 21 11 WNW 1030,6 20 0 0,0
10.12.2018 15:00:00 11,0 6,5 11,3 9,4 13 7 23 13 WNW 1030,6 20 29 0,0
10.12.2018 14:00:00 11,7 7,4 12,3 9,2 16 8 22 12 W 1030,5 20 60 0,0
10.12.2018 13:00:00 10,8 7,3 10,4 9,1 14 8 21 12 W 1031,4 19 47 0,0
10.12.2018 12:00:00 10,2 7,3 9,8 9,1 11 6 21 11 WSW 1031,7 20 56 0,0
10.12.2018 11:00:00 8,8 6,6 7,8 9,2 11 6 18 10 WSW 1031,7 19 51 0,0
10.12.2018 10:00:00 7,4 6,2 4,9 9,3 11 6 18 10 WSW 1031,2 15 36 0,0
10.12.2018 09:00:00 5,9 4,9 4,3 9,4 11 6 21 11 SW 1030,9 14 0 0,0
10.12.2018 08:00:00 6,2 4,5 4,3 9,5 11 6 18 10 WSW 1030,7 20 0 0,0
10.12.2018 07:00:00 6,9 5,2 5,2 9,6 10 5 22 12 W 1030,4 17 0 0,0
10.12.2018 06:00:00 7,0 5,6 6,1 9,7 9 5 19 10 WSW 1030,1 16 0 0,0
10.12.2018 05:00:00 7,2 5,7 6,7 9,7 13 7 21 11 WSW 1029,9 16 0 0,0
10.12.2018 04:00:00 7,7 6,0 6,8 9,8 13 7 23 12 WSW 1029,8 13 0 0,0
10.12.2018 03:00:00 8,8 6,4 8,4 9,8 14 8 25 14 W 1029,3 18 0 0,0
10.12.2018 02:00:00 9,2 7,0 8,2 9,8 13 7 36 19 W 1029,3 17 0 0,0
10.12.2018 01:00:00 9,3 7,1 8,4 9,9 14 8 40 22 W 1028,9 17 0 0,0
10.12.2018 00:00:00 10,3 6,6 9,4 10,0 23 12 44 24 WNW 1028,4 18 0 0,0
09.12.2018 23:00:00 10,6 6,5 9,8 10,0 29 15 51 27 WNW 1027,9 18 0 0,0
09.12.2018 22:00:00 10,7 6,6 9,6 10,0 31 17 51 27 WNW 1027,5 20 0 0,0
09.12.2018 21:00:00 10,7 7,2 9,4 10,0 27 15 42 23 WNW 1026,8 16 0 0,0
09.12.2018 20:00:00 10,4 7,6 9,7 10,1 29 15 52 28 WNW 1026,0 15 0 0,0
09.12.2018 19:00:00 10,8 7,3 9,8 10,1 29 15 67 36 NW 1025,1 20 0 0,0
09.12.2018 18:00:00 11,0 7,5 9,9 10,1 34 19 62 33 WNW 1023,9 19 0 0,0
09.12.2018 17:00:00 10,9 7,8 10,1 10,0 39 21 66 36 WNW 1022,8 16 17 0,0
09.12.2018 16:00:00 11,1 8,0 9,7 10,0 41 22 64 35 WNW 1021,6 13 11 0,2
09.12.2018 15:00:00 10,4 8,7 9,6 9,9 40 22 86 46 NW 1020,8 2,8 1 0,4
09.12.2018 14:00:00 12,0 7,5 11,4 9,8 43 23 82 45 WNW 1019,5 14 11 0,0
09.12.2018 13:00:00 11,6 7,3 11,5 9,8 45 24 78 42 WNW 1018,7 14 5 0,0
09.12.2018 12:00:00 11,6 7,5 9,6 9,7 46 25 72 39 WNW 1017,9 16 2 0,0
09.12.2018 11:00:00 11,5 7,2 9,1 9,7 46 25 76 41 WNW 1017,4 16 18 0,0
09.12.2018 10:00:00 10,5 7,7 8,8 9,7 31 17 59 32 W 1016,7 11 1 0,6
09.12.2018 09:00:00 10,8 6,7 8,7 9,8 33 18 63 34 W 1016,0 14 0 0,2
09.12.2018 08:00:00 10,1 6,6 8,7 9,8 29 15 62 34 W 1015,4 11 0 0,0
09.12.2018 07:00:00 9,9 6,1 8,4 9,9 32 17 59 32 W 1014,7 13 0 0,0
09.12.2018 06:00:00 10,0 5,4 9,1 9,9 36 19 59 32 W 1014,4 16 0 0,0
09.12.2018 05:00:00 10,3 5,1 9,2 10,0 31 17 72 39 W 1014,0 14 0 0,0
09.12.2018 04:00:00 10,1 5,3 8,8 10,1 29 15 61 33 W 1014,0 13 0 0,0
09.12.2018 03:00:00 10,1 5,1 8,0 10,2 38 21 76 41 W 1013,6 13 0 0,0
09.12.2018 02:00:00 9,7 6,8 8,1 10,2 28 15 61 33 W 1012,9 13 0 1,0
09.12.2018 01:00:00 10,1 6,8 8,7 10,3 34 18 74 40 W 1012,7 14 0 0,0
09.12.2018 00:00:00 10,0 7,4 8,8 10,3 46 25 83 45 W 1012,2 2,8 0 0,8
08.12.2018 23:00:00 11,7 6,0 10,6 10,3 32 18 69 37 W 1011,6 14 0 0,0
08.12.2018 22:00:00 11,7 6,8 10,9 10,4 32 18 61 33 WSW 1011,3 13 0 0,0
08.12.2018 21:00:00 12,3 7,2 11,2 10,4 27 15 48 26 W 1011,8 15 0 0,0
08.12.2018 20:00:00 12,5 7,8 11,3 10,3 26 14 50 27 W 1011,8 15 0 0,0
08.12.2018 19:00:00 12,8 8,9 12,4 10,2 24 13 55 30 WSW 1011,4 19 0 0,0
08.12.2018 18:00:00 13,3 9,0 12,7 10,1 31 17 64 35 W 1011,6 32 0 0,0
08.12.2018 17:00:00 13,1 10,8 12,5 10,0 31 17 54 29 WSW 1011,1 60 1 0,0
08.12.2018 16:00:00 12,8 10,5 12,4 9,9 32 17 53 28 SW 1011,6 60 0 0,0
08.12.2018 15:00:00 12,5 10,0 11,6 9,7 35 19 55 30 SW 1012,5 58 0 0,0
08.12.2018 14:00:00 11,9 9,8 11,3 9,6 34 19 51 27 SW 1013,9 20 2 0,0
08.12.2018 13:00:00 11,3 9,9 10,1 9,5 29 16 46 25 SW 1015,0 45 0 0,2
08.12.2018 12:00:00 11,1 8,7 10,2 9,4 27 14 40 22 SW 1016,5 20 0 0,0
08.12.2018 11:00:00 10,3 7,5 9,8 9,4 25 14 37 20 SW 1017,0 11 0 0,0
08.12.2018 10:00:00 9,9 6,8 9,2 9,4 21 12 32 17 SW 1017,3 19 0 0,0
08.12.2018 09:00:00 9,8 6,0 8,7 9,4 23 13 36 19 WSW 1017,5 20 0 0,0
08.12.2018 08:00:00 9,1 6,2 8,1 9,5 20 11 34 18 SW 1017,6 19 0 0,0
08.12.2018 07:00:00 9,1 5,5 7,8 9,5 19 11 37 20 WSW 1017,1 33 0 0,0
08.12.2018 06:00:00 8,8 5,4 7,9 9,6 23 12 38 20 WSW 1016,8 20 0 0,0
08.12.2018 05:00:00 9,0 5,4 8,0 9,6 24 13 44 24 WSW 1016,7 30 0 0,0
08.12.2018 04:00:00 8,8 5,5 7,6 9,7 25 13 48 26 WSW 1017,0 30 0 0,0
08.12.2018 03:00:00 8,4 5,7 7,1 9,8 30 16 53 29 WSW 1016,7 20 0 0,0
08.12.2018 02:00:00 8,2 5,0 6,7 9,9 28 15 44 24 WSW 1017,1 50 0 0,0
08.12.2018 01:00:00 7,4 4,9 6,6 10,1 27 14 39 21 SW 1017,1 20 0 0,0
08.12.2018 00:00:00 7,2 4,7 6,1 10,2 23 12 37 20 SW 1017,0 20 0 0,0
07.12.2018 23:00:00 8,2 4,6 6,1 10,4 24 13 42 23 WSW 1017,3 20 0 0,0
07.12.2018 22:00:00 7,0 4,1 6,1 10,6 21 11 33 18 SW 1017,0 20 0 0,0
07.12.2018 21:00:00 7,5 4,1 5,8 10,7 21 11 44 24 WSW 1016,9 36 0 0,0
07.12.2018 20:00:00 6,6 3,7 5,6 11,0 21 11 33 18 SW 1016,3 37 0 0,0
07.12.2018 19:00:00 6,7 3,8 5,8 11,1 18 10 34 18 WSW 1015,9 37 0 0,0
07.12.2018 18:00:00 7,5 3,4 6,5 11,3 20 11 58 31 WSW 1014,7 46 0 0,0
07.12.2018 17:00:00 9,0 5,0 7,0 11,4 28 15 52 28 W 1013,7 12 18 0,4
07.12.2018 16:00:00 8,7 4,3 6,9 11,5 27 15 84 45 W 1012,6 50 23 0,0
07.12.2018 15:00:00 10,1 6,6 8,0 11,5 28 15 50 27 W 1011,2 20 1 0,0
07.12.2018 14:00:00 8,8 5,9 6,9 11,6 28 15 73 39 W 1010,5 28 2 1,0
07.12.2018 13:00:00 10,6 6,5 9,8 11,6 27 15 48 26 W 1009,7 16 35 0,0
07.12.2018 12:00:00 10,3 7,9 9,1 11,6 23 12 53 29 W 1009,2 20 13 1,2
07.12.2018 11:00:00 9,7 8,6 9,4 11,6 31 17 68 37 W 1010,0 9 0 3,5
07.12.2018 10:00:00 12,4 11,1 11,2 11,6 34 18 56 30 SSW 1007,7 57 0 1,0
07.12.2018 09:00:00 11,8 10,5 11,1 11,7 34 18 59 32 SSW 1008,9 7 0 0,4
07.12.2018 08:00:00 12,8 9,1 12,1 11,7 38 20 59 32 SW 1011,1 33 0 0,0
07.12.2018 07:00:00 12,6 9,6 11,3 11,7 34 18 54 29 SW 1012,3 44 0 0,0
07.12.2018 06:00:00 12,4 10,1 11,6 11,7 26 14 56 30 SSW 1013,3 20 0 0,0
07.12.2018 05:00:00 12,3 10,7 11,7 11,7 26 14 52 28 SSW 1014,8 15 0 0,0
07.12.2018 04:00:00 12,4 10,6 11,9 11,7 34 19 57 31 SW 1015,9 19 0 0,0
07.12.2018 03:00:00 12,8 10,5 12,6 11,7 32 17 54 29 SW 1016,6 60 0 0,0
07.12.2018 02:00:00 12,9 10,4 12,5 11,8 29 16 54 29 SW 1017,3 60 0 0,0
07.12.2018 01:00:00 12,8 10,3 12,5 11,8 22 12 41 22 SW 1018,2 60 0 0,0
07.12.2018 00:00:00 12,9 10,4 12,5 11,8 24 13 41 22 SW 1019,1 60 0 0,0
06.12.2018 23:00:00 12,6 10,8 12,3 11,8 21 11 37 20 SW 1019,7 50 0 0,0
06.12.2018 22:00:00 12,5 10,7 12,0 11,8 21 11 31 17 SW 1020,4 20 0 0,0
06.12.2018 21:00:00 12,4 10,5 12,2 11,9 21 12 32 18 SW 1021,0 38 0 0,0
06.12.2018 20:00:00 12,4 9,9 12,2 11,9 22 12 34 18 SW 1021,2 29 0 0,0

tt = Température de l'air
td = dewpoint
tt 5cm = Température de l'air 5cm
tt -20cm = Température de l'air -20cm
ff = Vitesse du vent
fx = gusts
dd = Direction du vent
ppp = reduced air pressure
vv = visibility
sd = Ensoleillement
rr = Quantités de précipitations

stations d'obs. à proximité